Frederick, MD

6:55 PM EDT on May 23, 2017 (GMT -0400)
Frederick Municipal

Weather History for KFDK - January, 2013

Change the Weather History Date:

Tuesday, January 29, 2013

  Actual Average (KHGR) Record (KHGR)
Temperature  
Mean Temperature 50 °F -  
Max Temperature 66 °F 36 °F 70 °F (2002)
Min Temperature 35 °F 22 °F 4 °F (2014)
Degree Days  
Heating Degree Days 14    
Moisture  
Dew Point 43 °F    
Average Humidity 93    
Maximum Humidity 100    
Minimum Humidity 64    
Precipitation  
Precipitation 0.00 in - - ()
Sea Level Pressure  
Sea Level Pressure 30.06 in    
Wind  
Wind Speed 3 mph (South)    
Max Wind Speed 8 mph    
Max Gust Speed -    
Visibility 7 miles    
Events      
Averages and records for this station are not official NWS values.
T = Trace of Precipitation, MM = Missing Value Source: NWS Daily Summary

Daily Weather History Graph

Daily Weather History Graph

Search for Another Location

Airport or City:

Trip Planner

Search our weather history database for the weather conditions in past years. The results will help you decide how hot, cold, wet, or windy it might be!

Date:

Astronomy

Jan. 29, 2013 Rise Set
Actual Time 7:19 AM EST 5:26 PM EST
Civil Twilight 6:50 AM EST 5:55 PM EST
Nautical Twilight 6:18 AM EST 6:27 PM EST
Astronomical Twilight 5:46 AM EST 6:59 PM EST
Moon 8:19 PM EST (1/29) 8:16 AM EST (1/29)
Length of Visible Light 11h 04m
Length of Day
10h 07m
Waning Gibbous, 94% of the Moon is Illuminated
Jan 29
Waning Gibbous
Feb 3
Last Quarter
Feb 10
New
Feb 17
First Quarter
Feb 25
Full

Hourly Weather History & Observations

Time (EST) Temp. Windchill Dew Point Humidity Pressure Visibility Wind Dir Wind Speed Gust Speed Precip Events Conditions
12:15 AM 37.4 °F 33.8 °F 37.4 °F 100% 30.08 in 4.0 mi SSE 4.6 mph - N/A   Overcast
12:35 AM 37.4 °F 34.9 °F 37.4 °F 100% 30.08 in 3.0 mi SSE 3.5 mph - N/A   Overcast
12:55 AM 37.4 °F 34.9 °F 37.4 °F 100% 30.07 in 3.0 mi South 3.5 mph - N/A   Overcast
1:20 AM 37.4 °F 34.9 °F 37.4 °F 100% 30.07 in 3.0 mi South 3.5 mph - N/A   Overcast
1:40 AM 37.4 °F 34.9 °F 37.4 °F 100% 30.07 in 3.0 mi SSW 3.5 mph - N/A   Overcast
2:00 AM 37.4 °F 33.8 °F 37.4 °F 100% 30.08 in 4.0 mi SSW 4.6 mph - N/A   Overcast
2:20 AM 37.4 °F 34.9 °F 37.4 °F 100% 30.08 in 4.0 mi South 3.5 mph - N/A   Overcast
2:45 AM 39.2 °F 37.0 °F 39.2 °F 100% 30.08 in 5.0 mi South 3.5 mph - N/A   Overcast
3:05 AM 39.2 °F 37.0 °F 39.2 °F 100% 30.08 in 4.0 mi SSE 3.5 mph - N/A   Overcast
3:25 AM 37.4 °F 34.9 °F 37.4 °F 100% 30.08 in 4.0 mi SSW 3.5 mph - N/A   Overcast
3:45 AM 39.2 °F - 39.2 °F 100% 30.08 in 4.0 mi Calm Calm - N/A   Overcast
4:10 AM 39.2 °F - 39.2 °F 100% 30.08 in 4.0 mi Calm Calm - N/A   Overcast
4:30 AM 39.2 °F 37.0 °F 39.2 °F 100% 30.08 in 4.0 mi South 3.5 mph - N/A   Overcast
4:50 AM 37.4 °F - 37.4 °F 100% 30.08 in 4.0 mi Calm Calm - N/A   Overcast
5:10 AM 37.4 °F - 37.4 °F 100% 30.09 in 4.0 mi Calm Calm - N/A   Overcast
5:35 AM 37.4 °F - 37.4 °F 100% 30.09 in 3.0 mi Calm Calm - N/A   Scattered Clouds
5:50 AM 35.6 °F - 35.6 °F 100% 30.09 in 3.0 mi Calm Calm - N/A   Scattered Clouds
6:45 AM 35.6 °F - 35.6 °F 100% 30.10 in 5.0 mi Calm Calm - N/A   Clear
7:50 AM 37.4 °F 34.9 °F 37.4 °F 100% 30.11 in 7.0 mi SSE 3.5 mph - N/A   Clear
8:50 AM 44.6 °F 42.2 °F 44.6 °F 100% 30.12 in 10.0 mi SSE 4.6 mph - N/A   Clear
9:45 AM 55.4 °F - 50.0 °F 82% 30.12 in 10.0 mi SSW 6.9 mph - N/A   Clear
10:50 AM 60.8 °F - 53.6 °F 77% 30.12 in 10.0 mi SSW 6.9 mph - N/A   Clear
11:50 AM 62.6 °F - 53.6 °F 72% 30.11 in 10.0 mi South 8.1 mph - N/A   Clear
12:50 PM 64.4 °F - 53.6 °F 68% 30.06 in 10.0 mi South 8.1 mph - N/A   Clear
1:55 PM 66.2 °F - 53.6 °F 64% 30.05 in 10.0 mi SW 5.8 mph - N/A   Clear
2:55 PM 66.2 °F - 53.6 °F 64% 30.04 in 10.0 mi South 5.8 mph - N/A   Clear
3:45 PM 66.2 °F - 53.6 °F 64% 30.03 in 10.0 mi South 4.6 mph - N/A   Clear
4:50 PM 64.4 °F - 53.6 °F 68% 30.02 in 10.0 mi South 6.9 mph - N/A   Clear
5:50 PM 57.2 °F - 48.2 °F 72% 30.03 in 10.0 mi South 3.5 mph - N/A   Clear
6:50 PM 53.6 °F - 48.2 °F 82% 30.02 in 10.0 mi SSW 3.5 mph - N/A   Clear
7:55 PM 50.0 °F - 46.4 °F 87% 30.02 in 10.0 mi Calm Calm - N/A   Clear
8:05 PM 48.2 °F - 46.4 °F 93% 30.02 in 10.0 mi Calm Calm - N/A   Clear
8:25 PM 46.4 °F - 46.4 °F 100% 30.02 in 10.0 mi Calm Calm - N/A   Clear
8:45 PM 46.4 °F - 46.4 °F 100% 30.02 in 10.0 mi Calm Calm - N/A   Clear
9:10 PM 44.6 °F - 44.6 °F 100% 30.02 in 10.0 mi Calm Calm - N/A   Clear
9:30 PM 44.6 °F - 44.6 °F 100% 30.02 in 10.0 mi Calm Calm - N/A   Clear
9:50 PM 44.6 °F - 44.6 °F 100% 30.02 in 7.0 mi Calm Calm - N/A   Clear
10:10 PM 42.8 °F - 42.8 °F 100% 30.02 in 7.0 mi Calm Calm - N/A   Clear
10:35 PM 44.6 °F - 44.6 °F 100% 30.00 in 10.0 mi Calm Calm - N/A   Clear
10:55 PM 42.8 °F 40.1 °F 42.8 °F 100% 30.01 in 10.0 mi WSW 4.6 mph - N/A   Clear
11:15 PM 44.6 °F - 44.6 °F 100% 30.00 in 7.0 mi Calm Calm - N/A   Clear
11:35 PM 42.8 °F - 42.8 °F 100% 29.99 in 7.0 mi Calm Calm - N/A   Clear